Location: Newark
(44.3100°N, 0.7769°W)
Time: 15:52:00
(UTC+00:00)

Envisat - Pass Details

Date: 26 November 2019
Orbit: 764 x 766 km, 98.1° (Epoch: 15 December)

Event Time Altitude Azimuth Distance (km) Brightness Sun altitude
Rises 06:39:01 0° 16° (NNE) 3,241 6.2 -6.2°
Reaches altitude 10° 06:41:23 10° 21° (NNE) 2,310 5.5 -5.8°
Maximum altitude 06:46:24 58° 100° (E) 888 3.8 -5.0°
Drops below altitude 10° 06:51:23 10° 180° (S) 2,293 5.8 -4.2°
Sets 06:53:43 0° 184° (S) 3,215 6.5 -3.8°
